Location: �perlecques
(50.8057°N, 2.1521°E)
Time: 18:16:52
(UTC+00:00)

KKS-1 - Pass Details

Date: 03 April 2023
Orbit: 633 x 644 km, 98.2° (Epoch: 03 June)

Event Time Altitude Azimuth Distance (km) Brightness Sun altitude
Rises 21:28:21 0° 26° (NNE) 2,943 ? -25.5°
Reaches altitude 10° 21:31:03 10° 43° (NE) 2,029 ? -25.8°
Enters shadow 21:31:33 12° 47° (NE) 1,886 ? -25.9°
